Year,Month,Day,Hour,Minute,Value (Times are PST for temperature in C)
2015,06,22,00,00,18.10
2015,06,22,00,01,18.10
2015,06,22,00,02,18.00
2015,06,22,00,03,18.00
2015,06,22,00,04,18.00
2015,06,22,00,05,17.90
2015,06,22,00,06,17.90
2015,06,22,00,07,17.90
2015,06,22,00,08,17.90
2015,06,22,00,09,17.80
2015,06,22,00,10,17.80
2015,06,22,00,11,17.80
2015,06,22,00,12,17.80
2015,06,22,00,13,17.80
2015,06,22,00,14,17.70
2015,06,22,00,15,17.70
2015,06,22,00,16,17.70
2015,06,22,00,17,17.70
2015,06,22,00,18,17.60
2015,06,22,00,19,17.60
2015,06,22,00,20,17.60
2015,06,22,00,21,17.60
2015,06,22,00,22,17.60
2015,06,22,00,23,17.60
2015,06,22,00,24,17.60
2015,06,22,00,25,17.60
2015,06,22,00,26,17.60
2015,06,22,00,27,17.60
2015,06,22,00,28,17.60
2015,06,22,00,29,17.60
2015,06,22,00,30,17.60
2015,06,22,00,31,17.60
2015,06,22,00,32,17.60
2015,06,22,00,33,17.60
2015,06,22,00,34,17.60
2015,06,22,00,35,17.50
2015,06,22,00,36,17.50
2015,06,22,00,37,17.50
2015,06,22,00,38,17.50
2015,06,22,00,39,17.50
2015,06,22,00,40,17.50
2015,06,22,00,41,17.50
2015,06,22,00,42,17.50
2015,06,22,00,43,17.50
2015,06,22,00,44,17.50
2015,06,22,00,45,17.50
2015,06,22,00,46,17.50
2015,06,22,00,47,17.50
2015,06,22,00,48,17.50
2015,06,22,00,49,17.50
2015,06,22,00,50,17.40
2015,06,22,00,51,17.40
2015,06,22,00,52,17.40
2015,06,22,00,53,17.40
2015,06,22,00,54,17.30
2015,06,22,00,55,17.30
2015,06,22,00,56,17.30
2015,06,22,00,57,17.30
2015,06,22,00,58,17.20
2015,06,22,00,59,17.20
2015,06,22,01,00,17.20
2015,06,22,01,01,17.20
2015,06,22,01,02,17.20
2015,06,22,01,03,17.10
2015,06,22,01,04,17.10
2015,06,22,01,05,17.00
2015,06,22,01,06,17.00
2015,06,22,01,07,16.90
2015,06,22,01,08,16.90
2015,06,22,01,09,16.90
2015,06,22,01,10,16.80
2015,06,22,01,11,16.80
2015,06,22,01,12,16.80
2015,06,22,01,13,16.80
2015,06,22,01,14,16.80
2015,06,22,01,15,16.80
2015,06,22,01,16,16.80
2015,06,22,01,17,16.80
2015,06,22,01,18,16.70
2015,06,22,01,19,16.70
2015,06,22,01,20,16.70
2015,06,22,01,21,16.70
2015,06,22,01,22,16.70
2015,06,22,01,23,16.70
2015,06,22,01,24,16.60
2015,06,22,01,25,16.60
2015,06,22,01,26,16.60
2015,06,22,01,27,16.60
2015,06,22,01,28,16.60
2015,06,22,01,29,16.60
2015,06,22,01,30,16.60
2015,06,22,01,31,16.60
2015,06,22,01,32,16.60
2015,06,22,01,33,16.50
2015,06,22,01,34,16.50
2015,06,22,01,35,16.50
2015,06,22,01,36,16.40
2015,06,22,01,37,16.40
2015,06,22,01,38,16.40
2015,06,22,01,39,16.40
2015,06,22,01,40,16.40
2015,06,22,01,41,16.50
2015,06,22,01,42,16.50
2015,06,22,01,43,16.50
2015,06,22,01,44,16.60
2015,06,22,01,45,16.60
2015,06,22,01,46,16.70
2015,06,22,01,47,16.70
2015,06,22,01,48,16.70
2015,06,22,01,49,16.60
2015,06,22,01,50,16.60
2015,06,22,01,51,16.60
2015,06,22,01,52,16.50
2015,06,22,01,53,16.40
2015,06,22,01,54,16.40
2015,06,22,01,55,16.40
2015,06,22,01,56,16.40
2015,06,22,01,57,16.40
2015,06,22,01,58,16.30
2015,06,22,01,59,16.30
2015,06,22,02,00,16.30
2015,06,22,02,01,16.30
2015,06,22,02,02,16.30
2015,06,22,02,03,16.30
2015,06,22,02,04,16.40
2015,06,22,02,05,16.40
2015,06,22,02,06,16.40
2015,06,22,02,07,16.50
2015,06,22,02,08,16.50
2015,06,22,02,09,16.60
2015,06,22,02,10,16.60
2015,06,22,02,11,16.60
2015,06,22,02,12,16.60
2015,06,22,02,13,16.60
2015,06,22,02,14,16.60
2015,06,22,02,15,16.60
2015,06,22,02,16,16.60
2015,06,22,02,17,16.60
2015,06,22,02,18,16.70
2015,06,22,02,19,16.70
2015,06,22,02,20,16.60
2015,06,22,02,21,16.60
2015,06,22,02,22,16.60
2015,06,22,02,23,16.50
2015,06,22,02,24,16.40
2015,06,22,02,25,16.40
2015,06,22,02,26,16.30
2015,06,22,02,27,16.30
2015,06,22,02,28,16.30
2015,06,22,02,29,16.20
2015,06,22,02,30,16.20
2015,06,22,02,31,16.20
2015,06,22,02,32,16.20
2015,06,22,02,33,16.20
2015,06,22,02,34,16.20
2015,06,22,02,35,16.20
2015,06,22,02,36,16.20
2015,06,22,02,37,16.20
2015,06,22,02,38,16.20
2015,06,22,02,39,16.10
2015,06,22,02,40,16.10
2015,06,22,02,41,16.10
2015,06,22,02,42,16.10
2015,06,22,02,43,16.10
2015,06,22,02,44,16.10
2015,06,22,02,45,16.10
2015,06,22,02,46,16.00
2015,06,22,02,47,16.00
2015,06,22,02,48,16.00
2015,06,22,02,49,16.00
2015,06,22,02,50,16.00
2015,06,22,02,51,16.00
2015,06,22,02,52,16.00
2015,06,22,02,53,16.00
2015,06,22,02,54,16.00
2015,06,22,02,55,16.00
2015,06,22,02,56,15.90
2015,06,22,02,57,15.90
2015,06,22,02,58,15.90
2015,06,22,02,59,15.80
2015,06,22,03,00,15.80
2015,06,22,03,01,15.70
2015,06,22,03,02,15.60
2015,06,22,03,03,15.60
2015,06,22,03,04,15.60
2015,06,22,03,05,15.60
2015,06,22,03,06,15.60
2015,06,22,03,07,15.60
2015,06,22,03,08,15.50
2015,06,22,03,09,15.50
2015,06,22,03,10,15.50
2015,06,22,03,11,15.50
2015,06,22,03,12,15.50
2015,06,22,03,13,15.40
2015,06,22,03,14,15.40
2015,06,22,03,15,15.40
2015,06,22,03,16,15.40
2015,06,22,03,17,15.40
2015,06,22,03,18,15.40
2015,06,22,03,19,15.30
2015,06,22,03,20,15.30
2015,06,22,03,21,15.30
2015,06,22,03,22,15.30
2015,06,22,03,23,15.30
2015,06,22,03,24,15.30
2015,06,22,03,25,15.30
2015,06,22,03,26,15.30
2015,06,22,03,27,15.20
2015,06,22,03,28,15.20
2015,06,22,03,29,15.20
2015,06,22,03,30,15.20
2015,06,22,03,31,15.20
2015,06,22,03,32,15.20
2015,06,22,03,33,15.20
2015,06,22,03,34,15.20
2015,06,22,03,35,15.20
2015,06,22,03,36,15.10
2015,06,22,03,37,15.10
2015,06,22,03,38,15.10
2015,06,22,03,39,14.90
2015,06,22,03,40,14.80
2015,06,22,03,41,14.70
2015,06,22,03,42,14.70
2015,06,22,03,43,14.60
2015,06,22,03,44,14.60
2015,06,22,03,45,14.60
2015,06,22,03,46,14.60
2015,06,22,03,47,14.60
2015,06,22,03,48,14.60
2015,06,22,03,49,14.60
2015,06,22,03,50,14.60
2015,06,22,03,51,14.70
2015,06,22,03,52,14.70
2015,06,22,03,53,14.70
2015,06,22,03,54,14.70
2015,06,22,03,55,14.70
2015,06,22,03,56,14.70
2015,06,22,03,57,14.70
2015,06,22,03,58,14.70
2015,06,22,03,59,14.60
2015,06,22,04,00,14.60
2015,06,22,04,01,14.60
2015,06,22,04,02,14.50
2015,06,22,04,03,14.40
2015,06,22,04,04,14.30
2015,06,22,04,05,14.30
2015,06,22,04,06,14.20
2015,06,22,04,07,14.20
2015,06,22,04,08,14.10
2015,06,22,04,09,14.00
2015,06,22,04,10,13.90
2015,06,22,04,11,13.90
2015,06,22,04,12,13.80
2015,06,22,04,13,13.80
2015,06,22,04,14,13.90
2015,06,22,04,15,13.90
2015,06,22,04,16,13.90
2015,06,22,04,17,13.90
2015,06,22,04,18,13.80
2015,06,22,04,19,13.80
2015,06,22,04,20,13.70
2015,06,22,04,21,13.70
2015,06,22,04,22,13.70
2015,06,22,04,23,13.70
2015,06,22,04,24,13.70
2015,06,22,04,25,13.70
2015,06,22,04,26,13.70
2015,06,22,04,27,13.70
2015,06,22,04,28,13.70
2015,06,22,04,29,13.70
2015,06,22,04,30,13.70
2015,06,22,04,31,13.70
2015,06,22,04,32,13.70
2015,06,22,04,33,13.70
2015,06,22,04,34,13.70
2015,06,22,04,35,13.70
2015,06,22,04,36,13.80
2015,06,22,04,37,13.80
2015,06,22,04,38,13.70
2015,06,22,04,39,13.70
2015,06,22,04,40,13.70
2015,06,22,04,41,13.70
2015,06,22,04,42,13.70
2015,06,22,04,43,13.60
2015,06,22,04,44,13.60
2015,06,22,04,45,13.60
2015,06,22,04,46,13.50
2015,06,22,04,47,13.40
2015,06,22,04,48,13.40
2015,06,22,04,49,13.30
2015,06,22,04,50,13.30
2015,06,22,04,51,13.30
2015,06,22,04,52,13.30
2015,06,22,04,53,13.20
2015,06,22,04,54,13.20
2015,06,22,04,55,13.20
2015,06,22,04,56,13.20
2015,06,22,04,57,13.20
2015,06,22,04,58,13.20
2015,06,22,04,59,13.20
2015,06,22,05,00,13.20
2015,06,22,05,01,13.20
2015,06,22,05,02,13.20
2015,06,22,05,03,13.20
2015,06,22,05,04,13.20
2015,06,22,05,05,13.10
2015,06,22,05,06,13.10
2015,06,22,05,07,13.10
2015,06,22,05,08,13.00
2015,06,22,05,09,13.00
2015,06,22,05,10,12.90
2015,06,22,05,11,12.90
2015,06,22,05,12,12.90
2015,06,22,05,13,12.90
2015,06,22,05,14,12.80
2015,06,22,05,15,12.80
2015,06,22,05,16,12.80
2015,06,22,05,17,12.80
2015,06,22,05,18,12.80
2015,06,22,05,19,12.80
2015,06,22,05,20,12.80
2015,06,22,05,21,12.80
2015,06,22,05,22,12.80
2015,06,22,05,23,12.80
2015,06,22,05,24,12.70
2015,06,22,05,25,12.70
2015,06,22,05,26,12.70
2015,06,22,05,27,12.70
2015,06,22,05,28,12.70
2015,06,22,05,29,12.60
2015,06,22,05,30,12.60
2015,06,22,05,31,12.60
2015,06,22,05,32,12.60
2015,06,22,05,33,12.50
2015,06,22,05,34,12.40
2015,06,22,05,35,12.40
2015,06,22,05,36,12.40
2015,06,22,05,37,12.30
2015,06,22,05,38,12.30
2015,06,22,05,39,12.30
2015,06,22,05,40,12.30
2015,06,22,05,41,12.30
2015,06,22,05,42,12.20
2015,06,22,05,43,12.20
2015,06,22,05,44,12.20
2015,06,22,05,45,12.20
2015,06,22,05,46,12.20
2015,06,22,05,47,12.20
2015,06,22,05,48,12.20
2015,06,22,05,49,12.20
2015,06,22,05,50,12.20
2015,06,22,05,51,12.20
2015,06,22,05,52,12.20
2015,06,22,05,53,12.20
2015,06,22,05,54,12.20
2015,06,22,05,55,12.20
2015,06,22,05,56,12.20
2015,06,22,05,57,12.20
2015,06,22,05,58,12.20
2015,06,22,05,59,12.20
2015,06,22,06,00,12.20
2015,06,22,06,01,12.20
2015,06,22,06,02,12.30
2015,06,22,06,03,12.30
2015,06,22,06,04,12.30
2015,06,22,06,05,12.30
2015,06,22,06,06,12.30
2015,06,22,06,07,12.30
2015,06,22,06,08,12.30
2015,06,22,06,09,12.30
2015,06,22,06,10,12.30
2015,06,22,06,11,12.40
2015,06,22,06,12,12.40
2015,06,22,06,13,12.40
2015,06,22,06,14,12.40
2015,06,22,06,15,12.40
2015,06,22,06,16,12.40
2015,06,22,06,17,12.50
2015,06,22,06,18,12.60
2015,06,22,06,19,12.60
2015,06,22,06,20,12.60
2015,06,22,06,21,12.60
2015,06,22,06,22,12.70
2015,06,22,06,23,12.70
2015,06,22,06,24,12.70
2015,06,22,06,25,12.70
2015,06,22,06,26,12.70
2015,06,22,06,27,12.70
2015,06,22,06,28,12.70
2015,06,22,06,29,12.70
2015,06,22,06,30,12.80
2015,06,22,06,31,12.80
2015,06,22,06,32,12.80
2015,06,22,06,33,12.80
2015,06,22,06,34,12.80
2015,06,22,06,35,12.80
2015,06,22,06,36,12.80
2015,06,22,06,37,12.80
2015,06,22,06,38,12.80
2015,06,22,06,39,12.90
2015,06,22,06,40,12.90
2015,06,22,06,41,13.00
2015,06,22,06,42,13.10
2015,06,22,06,43,13.10
2015,06,22,06,44,13.20
2015,06,22,06,45,13.20
2015,06,22,06,46,13.30
2015,06,22,06,47,13.30
2015,06,22,06,48,13.40
2015,06,22,06,49,13.40
2015,06,22,06,50,13.40
2015,06,22,06,51,13.50
2015,06,22,06,52,13.60
2015,06,22,06,53,13.60
2015,06,22,06,54,13.70
2015,06,22,06,55,13.70
2015,06,22,06,56,13.70
2015,06,22,06,57,13.80
2015,06,22,06,58,13.80
2015,06,22,06,59,13.80
2015,06,22,07,00,13.90
2015,06,22,07,01,13.90
2015,06,22,07,02,13.90
2015,06,22,07,03,13.90
2015,06,22,07,04,13.90
2015,06,22,07,05,13.80
2015,06,22,07,06,13.90
2015,06,22,07,07,13.90
2015,06,22,07,08,13.90
2015,06,22,07,09,14.00
2015,06,22,07,10,14.10
2015,06,22,07,11,14.20
2015,06,22,07,12,14.30
2015,06,22,07,13,14.40
2015,06,22,07,14,14.40
2015,06,22,07,15,14.60
2015,06,22,07,16,14.60
2015,06,22,07,17,14.70
2015,06,22,07,18,14.70
2015,06,22,07,19,14.80
2015,06,22,07,20,14.80
2015,06,22,07,21,14.80
2015,06,22,07,22,14.90
2015,06,22,07,23,14.90
2015,06,22,07,24,14.80
2015,06,22,07,25,14.80
2015,06,22,07,26,14.80
2015,06,22,07,27,14.70
2015,06,22,07,28,14.60
2015,06,22,07,29,14.60
2015,06,22,07,30,14.50
2015,06,22,07,31,14.40
2015,06,22,07,32,14.40
2015,06,22,07,33,14.40
2015,06,22,07,34,14.40
2015,06,22,07,35,14.40
2015,06,22,07,36,14.40
2015,06,22,07,37,14.40
2015,06,22,07,38,14.40
2015,06,22,07,39,14.30
2015,06,22,07,40,14.30
2015,06,22,07,41,14.30
2015,06,22,07,42,14.30
2015,06,22,07,43,14.30
2015,06,22,07,44,14.30
2015,06,22,07,45,14.40
2015,06,22,07,46,14.40
2015,06,22,07,47,14.50
2015,06,22,07,48,14.60
2015,06,22,07,49,14.60
2015,06,22,07,50,14.70
2015,06,22,07,51,14.80
2015,06,22,07,52,14.80
2015,06,22,07,53,14.80
2015,06,22,07,54,14.90
2015,06,22,07,55,14.90
2015,06,22,07,56,14.80
2015,06,22,07,57,14.80
2015,06,22,07,58,14.80
2015,06,22,07,59,14.80
2015,06,22,08,00,14.90
2015,06,22,08,01,14.90
2015,06,22,08,02,15.10
2015,06,22,08,03,15.10
2015,06,22,08,04,15.10
2015,06,22,08,05,15.10
2015,06,22,08,06,15.10
2015,06,22,08,07,15.20
2015,06,22,08,08,15.20
2015,06,22,08,09,15.20
2015,06,22,08,10,15.30
2015,06,22,08,11,15.30
2015,06,22,08,12,15.30
2015,06,22,08,13,15.30
2015,06,22,08,14,15.30
2015,06,22,08,15,15.30
2015,06,22,08,16,15.20
2015,06,22,08,17,15.20
2015,06,22,08,18,15.20
2015,06,22,08,19,15.20
2015,06,22,08,20,15.20
2015,06,22,08,21,15.20
2015,06,22,08,22,15.20
2015,06,22,08,23,15.20
2015,06,22,08,24,15.20
2015,06,22,08,25,15.20
2015,06,22,08,26,15.20
2015,06,22,08,27,15.20
2015,06,22,08,28,15.20
2015,06,22,08,29,15.20
2015,06,22,08,30,15.20
2015,06,22,08,31,15.20
2015,06,22,08,32,15.10
2015,06,22,08,33,15.00
2015,06,22,08,34,14.90
2015,06,22,08,35,14.90
2015,06,22,08,36,15.00
2015,06,22,08,37,15.10
2015,06,22,08,38,15.10
2015,06,22,08,39,15.10
2015,06,22,08,40,15.10
2015,06,22,08,41,15.20
2015,06,22,08,42,15.20
2015,06,22,08,43,15.30
2015,06,22,08,44,15.30
2015,06,22,08,45,15.30
2015,06,22,08,46,15.20
2015,06,22,08,47,15.10
2015,06,22,08,48,15.10
2015,06,22,08,49,15.10
2015,06,22,08,50,15.20
2015,06,22,08,51,15.20
2015,06,22,08,52,15.20
2015,06,22,08,53,15.20
2015,06,22,08,54,15.20
2015,06,22,08,55,15.30
2015,06,22,08,56,15.30
2015,06,22,08,57,15.30
2015,06,22,08,58,15.40
2015,06,22,08,59,15.40
2015,06,22,09,00,15.30
2015,06,22,09,01,15.30
2015,06,22,09,02,15.30
2015,06,22,09,03,15.40
2015,06,22,09,04,15.50
2015,06,22,09,05,15.60
2015,06,22,09,06,15.60
2015,06,22,09,07,15.70
2015,06,22,09,08,15.70
2015,06,22,09,09,15.70
2015,06,22,09,10,15.70
2015,06,22,09,11,15.70
2015,06,22,09,12,15.70
2015,06,22,09,13,15.70
2015,06,22,09,14,15.70
2015,06,22,09,15,15.60
2015,06,22,09,16,15.60
2015,06,22,09,17,15.60
2015,06,22,09,18,15.60
2015,06,22,09,19,15.60
2015,06,22,09,20,15.60
2015,06,22,09,21,15.60
2015,06,22,09,22,15.60
2015,06,22,09,23,15.60
2015,06,22,09,24,15.60
2015,06,22,09,25,15.70
2015,06,22,09,26,15.70
2015,06,22,09,27,15.70
2015,06,22,09,28,15.60
2015,06,22,09,29,15.60
2015,06,22,09,30,15.60
2015,06,22,09,31,15.60
2015,06,22,09,32,15.60
2015,06,22,09,33,15.60
2015,06,22,09,34,15.70
2015,06,22,09,35,15.70
2015,06,22,09,36,15.70
2015,06,22,09,37,15.70
2015,06,22,09,38,15.70
2015,06,22,09,39,15.70
2015,06,22,09,40,15.60
2015,06,22,09,41,15.60
2015,06,22,09,42,15.60
2015,06,22,09,43,15.50
2015,06,22,09,44,15.40
2015,06,22,09,45,15.40
2015,06,22,09,46,15.40
2015,06,22,09,47,15.50
2015,06,22,09,48,15.50
2015,06,22,09,49,15.50
2015,06,22,09,50,15.60
2015,06,22,09,51,15.60
2015,06,22,09,52,15.60
2015,06,22,09,53,15.70
2015,06,22,09,54,15.70
2015,06,22,09,55,15.60
2015,06,22,09,56,15.60
2015,06,22,09,57,15.60
2015,06,22,09,58,15.60
2015,06,22,09,59,15.60
2015,06,22,10,00,15.60
2015,06,22,10,01,15.60
2015,06,22,10,02,15.70
2015,06,22,10,03,15.70
2015,06,22,10,04,15.60
2015,06,22,10,05,15.60
2015,06,22,10,06,15.60
2015,06,22,10,07,15.70
2015,06,22,10,08,15.70
2015,06,22,10,09,15.70
2015,06,22,10,10,15.70
2015,06,22,10,11,15.70
2015,06,22,10,12,15.70
2015,06,22,10,13,15.70
2015,06,22,10,14,15.70
2015,06,22,10,15,15.60
2015,06,22,10,16,15.60
2015,06,22,10,17,15.60
2015,06,22,10,18,15.70
2015,06,22,10,19,15.70
2015,06,22,10,20,15.70
2015,06,22,10,21,15.70
2015,06,22,10,22,15.70
2015,06,22,10,23,15.80
2015,06,22,10,24,15.80
2015,06,22,10,25,15.80
2015,06,22,10,26,15.80
2015,06,22,10,27,15.80
2015,06,22,10,28,15.80
2015,06,22,10,29,15.80
2015,06,22,10,30,15.80
2015,06,22,10,31,15.80
2015,06,22,10,32,15.80
2015,06,22,10,33,15.90
2015,06,22,10,34,15.90
2015,06,22,10,35,15.90
2015,06,22,10,36,16.00
2015,06,22,10,37,16.10
2015,06,22,10,38,16.10
2015,06,22,10,39,16.10
2015,06,22,10,40,16.10
2015,06,22,10,41,16.10
2015,06,22,10,42,16.10
2015,06,22,10,43,16.20
2015,06,22,10,44,16.20
2015,06,22,10,45,16.20
2015,06,22,10,46,16.20
2015,06,22,10,47,16.20
2015,06,22,10,48,16.20
2015,06,22,10,49,16.20
2015,06,22,10,50,16.30
2015,06,22,10,51,16.30
2015,06,22,10,52,16.30
2015,06,22,10,53,16.40
2015,06,22,10,54,16.40
2015,06,22,10,55,16.40
2015,06,22,10,56,16.40
2015,06,22,10,57,16.30
2015,06,22,10,58,16.40
2015,06,22,10,59,16.40
2015,06,22,11,00,16.60
2015,06,22,11,01,16.60
2015,06,22,11,02,16.60
2015,06,22,11,03,16.60
2015,06,22,11,04,16.60
2015,06,22,11,05,16.60
2015,06,22,11,06,16.60
2015,06,22,11,07,16.60
2015,06,22,11,08,16.70
2015,06,22,11,09,16.70
2015,06,22,11,10,16.80
2015,06,22,11,11,16.80
2015,06,22,11,12,16.80
2015,06,22,11,13,16.80
2015,06,22,11,14,16.80
2015,06,22,11,15,16.80
2015,06,22,11,16,16.90
2015,06,22,11,17,16.90
2015,06,22,11,18,16.90
2015,06,22,11,19,17.00
2015,06,22,11,20,17.10
2015,06,22,11,21,17.10
2015,06,22,11,22,17.20
2015,06,22,11,23,17.20
2015,06,22,11,24,17.30
2015,06,22,11,25,17.40
2015,06,22,11,26,17.50
2015,06,22,11,27,17.70
2015,06,22,11,28,17.70
2015,06,22,11,29,17.80
2015,06,22,11,30,17.80
2015,06,22,11,31,17.80
2015,06,22,11,32,17.80
2015,06,22,11,33,17.80
2015,06,22,11,34,17.80
2015,06,22,11,35,17.80
2015,06,22,11,36,17.80
2015,06,22,11,37,17.90
2015,06,22,11,38,17.90
2015,06,22,11,39,18.00
2015,06,22,11,40,17.90
2015,06,22,11,41,17.90
2015,06,22,11,42,18.00
2015,06,22,11,43,18.00
2015,06,22,11,44,18.00
2015,06,22,11,45,18.10
2015,06,22,11,46,18.10
2015,06,22,11,47,18.20
2015,06,22,11,48,18.20
2015,06,22,11,49,18.20
2015,06,22,11,50,18.20
2015,06,22,11,51,18.20
2015,06,22,11,52,18.30
2015,06,22,11,53,18.30
2015,06,22,11,54,18.30
2015,06,22,11,55,18.40
2015,06,22,11,56,18.40
2015,06,22,11,57,18.40
2015,06,22,11,58,18.60
2015,06,22,11,59,18.50
2015,06,22,12,00,18.40
2015,06,22,12,01,18.40
2015,06,22,12,02,18.40
2015,06,22,12,03,18.30
2015,06,22,12,04,18.30
2015,06,22,12,05,18.30
2015,06,22,12,06,18.40
2015,06,22,12,07,18.50
2015,06,22,12,08,18.60
2015,06,22,12,09,18.60
2015,06,22,12,10,18.60
2015,06,22,12,11,18.60
2015,06,22,12,12,18.70
2015,06,22,12,13,18.70
2015,06,22,12,14,18.70
2015,06,22,12,15,18.70
2015,06,22,12,16,18.70
2015,06,22,12,17,18.70
2015,06,22,12,18,18.60
2015,06,22,12,19,18.70
2015,06,22,12,20,18.70
2015,06,22,12,21,18.70
2015,06,22,12,22,18.80
2015,06,22,12,23,18.80
2015,06,22,12,24,18.90
2015,06,22,12,25,18.90
2015,06,22,12,26,19.00
2015,06,22,12,27,19.10
2015,06,22,12,28,19.10
2015,06,22,12,29,19.10
2015,06,22,12,30,19.20
2015,06,22,12,31,19.30
2015,06,22,12,32,19.30
2015,06,22,12,33,19.30
2015,06,22,12,34,19.30
2015,06,22,12,35,19.30
2015,06,22,12,36,19.40
2015,06,22,12,37,19.40
2015,06,22,12,38,19.50
2015,06,22,12,39,19.60
2015,06,22,12,40,19.60
2015,06,22,12,41,19.60
2015,06,22,12,42,19.60
2015,06,22,12,43,19.50
2015,06,22,12,44,19.40
2015,06,22,12,45,19.40
2015,06,22,12,46,19.40
2015,06,22,12,47,19.40
2015,06,22,12,48,19.40
2015,06,22,12,49,19.40
2015,06,22,12,50,19.40
2015,06,22,12,51,19.40
2015,06,22,12,52,19.40
2015,06,22,12,53,19.50
2015,06,22,12,54,19.60
2015,06,22,12,55,19.60
2015,06,22,12,56,19.50
2015,06,22,12,57,19.40
2015,06,22,12,58,19.50
2015,06,22,12,59,19.60
2015,06,22,13,00,19.60
2015,06,22,13,01,19.70
2015,06,22,13,02,19.80
2015,06,22,13,03,19.80
2015,06,22,13,04,19.80
2015,06,22,13,05,19.90
2015,06,22,13,06,20.00
2015,06,22,13,07,20.10
2015,06,22,13,08,20.10
2015,06,22,13,09,20.20
2015,06,22,13,10,20.10
2015,06,22,13,11,20.10
2015,06,22,13,12,20.10
2015,06,22,13,13,20.10
2015,06,22,13,14,20.10
2015,06,22,13,15,20.20
2015,06,22,13,16,20.20
2015,06,22,13,17,20.30
2015,06,22,13,18,20.30
2015,06,22,13,19,20.30
2015,06,22,13,20,20.30
2015,06,22,13,21,20.40
2015,06,22,13,22,20.40
2015,06,22,13,23,20.40
2015,06,22,13,24,20.40
2015,06,22,13,25,20.40
2015,06,22,13,26,20.50
2015,06,22,13,27,20.60
2015,06,22,13,28,20.60
2015,06,22,13,29,20.70
2015,06,22,13,30,20.60
2015,06,22,13,31,20.60
2015,06,22,13,32,20.60
2015,06,22,13,33,20.60
2015,06,22,13,34,20.60
2015,06,22,13,35,20.70
2015,06,22,13,36,20.70
2015,06,22,13,37,20.60
2015,06,22,13,38,20.70
2015,06,22,13,39,20.70
2015,06,22,13,40,20.70
2015,06,22,13,41,20.80
2015,06,22,13,42,20.80
2015,06,22,13,43,20.80
2015,06,22,13,44,20.80
2015,06,22,13,45,20.90
2015,06,22,13,46,20.90
2015,06,22,13,47,20.90
2015,06,22,13,48,21.00
2015,06,22,13,49,21.10
2015,06,22,13,50,21.20
2015,06,22,13,51,21.20
2015,06,22,13,52,21.30
2015,06,22,13,53,21.30
2015,06,22,13,54,21.30
2015,06,22,13,55,21.40
2015,06,22,13,56,21.40
2015,06,22,13,57,21.40
2015,06,22,13,58,21.40
2015,06,22,13,59,21.40
2015,06,22,14,00,21.40
2015,06,22,14,01,21.50
2015,06,22,14,02,21.60
2015,06,22,14,03,21.70
2015,06,22,14,04,21.70
2015,06,22,14,05,21.70
2015,06,22,14,06,21.70
2015,06,22,14,07,21.80
2015,06,22,14,08,21.90
2015,06,22,14,09,22.10
2015,06,22,14,10,22.10
2015,06,22,14,11,22.00
2015,06,22,14,12,22.00
2015,06,22,14,13,22.00
2015,06,22,14,14,22.00
2015,06,22,14,15,22.00
2015,06,22,14,16,22.00
2015,06,22,14,17,22.00
2015,06,22,14,18,22.00
2015,06,22,14,19,22.00
2015,06,22,14,20,22.00
2015,06,22,14,21,22.00
2015,06,22,14,22,22.10
2015,06,22,14,23,22.20
2015,06,22,14,24,22.20
2015,06,22,14,25,22.20
2015,06,22,14,26,22.10
2015,06,22,14,27,22.10
2015,06,22,14,28,22.10
2015,06,22,14,29,22.20
2015,06,22,14,30,22.10
2015,06,22,14,31,22.20
2015,06,22,14,32,22.20
2015,06,22,14,33,22.20
2015,06,22,14,34,22.30
2015,06,22,14,35,22.30
2015,06,22,14,36,22.40
2015,06,22,14,37,22.60
2015,06,22,14,38,22.60
2015,06,22,14,39,22.60
2015,06,22,14,40,22.60
2015,06,22,14,41,22.70
2015,06,22,14,42,22.70
2015,06,22,14,43,22.70
2015,06,22,14,44,22.70
2015,06,22,14,45,22.80
2015,06,22,14,46,22.90
2015,06,22,14,47,23.00
2015,06,22,14,48,23.00
2015,06,22,14,49,23.10
2015,06,22,14,50,23.00
2015,06,22,14,51,23.10
2015,06,22,14,52,23.20
2015,06,22,14,53,23.20
2015,06,22,14,54,23.10
2015,06,22,14,55,23.20
2015,06,22,14,56,23.20
2015,06,22,14,57,23.30
2015,06,22,14,58,23.30
2015,06,22,14,59,23.30
2015,06,22,15,00,23.30
2015,06,22,15,01,23.30
2015,06,22,15,02,23.30
2015,06,22,15,03,23.30
2015,06,22,15,04,23.20
2015,06,22,15,05,23.20
2015,06,22,15,06,23.20
2015,06,22,15,07,23.20
2015,06,22,15,08,23.20
2015,06,22,15,09,23.20
2015,06,22,15,10,23.30
2015,06,22,15,11,23.30
2015,06,22,15,12,23.30
2015,06,22,15,13,23.30
2015,06,22,15,14,23.30
2015,06,22,15,15,23.30
2015,06,22,15,16,23.40
2015,06,22,15,17,23.40
2015,06,22,15,18,23.40
2015,06,22,15,19,23.40
2015,06,22,15,20,23.40
2015,06,22,15,21,23.50
2015,06,22,15,22,23.50
2015,06,22,15,23,23.60
2015,06,22,15,24,23.60
2015,06,22,15,25,23.60
2015,06,22,15,26,23.60
2015,06,22,15,27,23.70
2015,06,22,15,28,23.70
2015,06,22,15,29,23.60
2015,06,22,15,30,23.60
2015,06,22,15,31,23.60
2015,06,22,15,32,23.60
2015,06,22,15,33,23.50
2015,06,22,15,34,23.50
2015,06,22,15,35,23.40
2015,06,22,15,36,23.40
2015,06,22,15,37,23.40
2015,06,22,15,38,23.50
2015,06,22,15,39,23.60
2015,06,22,15,40,23.60
2015,06,22,15,41,23.60
2015,06,22,15,42,23.50
2015,06,22,15,43,23.40
2015,06,22,15,44,23.30
2015,06,22,15,45,23.30
2015,06,22,15,46,23.30
2015,06,22,15,47,23.20
2015,06,22,15,48,23.20
2015,06,22,15,49,23.20
2015,06,22,15,50,23.30
2015,06,22,15,51,23.30
2015,06,22,15,52,23.30
2015,06,22,15,53,23.20
2015,06,22,15,54,23.20
2015,06,22,15,55,23.20
2015,06,22,15,56,23.20
2015,06,22,15,57,23.20
2015,06,22,15,58,23.20
2015,06,22,15,59,23.30
2015,06,22,16,00,23.30
2015,06,22,16,01,23.20
2015,06,22,16,02,23.20
2015,06,22,16,03,23.10
2015,06,22,16,04,23.10
2015,06,22,16,05,23.10
2015,06,22,16,06,23.10
2015,06,22,16,07,23.10
2015,06,22,16,08,23.10
2015,06,22,16,09,23.10
2015,06,22,16,10,23.00
2015,06,22,16,11,23.00
2015,06,22,16,12,22.90
2015,06,22,16,13,22.90
2015,06,22,16,14,22.90
2015,06,22,16,15,22.90
2015,06,22,16,16,22.90
2015,06,22,16,17,22.80
2015,06,22,16,18,22.80
2015,06,22,16,19,22.80
2015,06,22,16,20,22.80
2015,06,22,16,21,22.80
2015,06,22,16,22,22.80
2015,06,22,16,23,22.90
2015,06,22,16,24,22.90
2015,06,22,16,25,22.90
2015,06,22,16,26,22.90
2015,06,22,16,27,22.80
2015,06,22,16,28,22.80
2015,06,22,16,29,22.70
2015,06,22,16,30,22.70
2015,06,22,16,31,22.70
2015,06,22,16,32,22.70
2015,06,22,16,33,22.60
2015,06,22,16,34,22.60
2015,06,22,16,35,22.50
2015,06,22,16,36,22.40
2015,06,22,16,37,22.40
2015,06,22,16,38,22.30
2015,06,22,16,39,22.30
2015,06,22,16,40,22.20
2015,06,22,16,41,22.10
2015,06,22,16,42,22.10
2015,06,22,16,43,22.00
2015,06,22,16,44,22.00
2015,06,22,16,45,21.90
2015,06,22,16,46,21.90
2015,06,22,16,47,21.90
2015,06,22,16,48,22.10
2015,06,22,16,49,22.10
2015,06,22,16,50,22.00
2015,06,22,16,51,21.90
2015,06,22,16,52,21.90
2015,06,22,16,53,21.80
2015,06,22,16,54,21.80
2015,06,22,16,55,21.80
2015,06,22,16,56,21.80
2015,06,22,16,57,21.80
2015,06,22,16,58,21.70
2015,06,22,16,59,21.60
2015,06,22,17,00,21.40
2015,06,22,17,01,21.40
2015,06,22,17,02,21.30
2015,06,22,17,03,21.30
2015,06,22,17,04,21.30
2015,06,22,17,05,21.20
2015,06,22,17,06,21.10
2015,06,22,17,07,21.10
2015,06,22,17,08,21.10
2015,06,22,17,09,21.10
2015,06,22,17,10,21.00
2015,06,22,17,11,20.90
2015,06,22,17,12,20.90
2015,06,22,17,13,20.90
2015,06,22,17,14,20.90
2015,06,22,17,15,21.00
2015,06,22,17,16,21.00
2015,06,22,17,17,21.00
2015,06,22,17,18,21.10
2015,06,22,17,19,21.10